Temperature
20 20 20 19 19 19 19 19 19 19 19 19 19 19 19 19 19 19 18 18 18 18 18 18 18 18 18 18 18 18 18 18 18 18 18 18 17 17 17 17 17 17 17
20 20 20 19 19 19 19 19 19 19 19 19 19 19 19 19 18 18 18 18 18 18 18 18 18 18 18 18 18 18 18 18 18 18 18 18 17 17 17 16 17 17 17
20 20 20 19 19 19 19 19 19 19 19 19 19 19 19 18 18 18 18 18 18 18 18 18 18 18 18 18 18 18 18 18 18 17 17 17 17 17 17 17 17 17 17
20 20 20 19 19 19 19 19 19 19 19 19 18 18 18 18 18 18 18 18 18 18 18 18 18 18 18 18 18 18 18 17 17 17 16 17 17 17 17 17 17 17 17
20 20 20 19 19 19 19 19 19 19 19 18 18 18 18 18 18 18 18 18 18 18 18 18 18 18 18 18 18 18 17 17 17 17 17 17 17 17 17 17 17 17 17
20 20 20 20 19 19 19 18 18 18 18 18 18 18 18 18 18 18 18 18 18 18 18 18 18 18 18 18 18 17 17 17 17 17 17 17 17 17 17 17 17 17 17
20 20 20 20 19 19 19 18 18 18 18 18 18 18 18 18 18 18 18 18 18 18 18 18 18 18 18 18 18 18 17 17 17 17 17 17 17 17 17 17 17 16 16
20 20 20 20 19 19 19 18 18 18 18 18 18 18 18 18 18 18 18 18 18 18 18 18 18 18 18 18 18 18 18 17 17 17 17 17 17 17 17 17 17 16 16
20 20 20 20 19 19 19 19 19 18 18 18 18 18 18 18 18 18 18 18 18 18 18 18 18 18 18 18 18 18 18 18 17 17 17 18 17 17 17 17 17 17 16
21 20 19 19 19 19 19 19 19 19 18 18 18 18 18 18 18 18 18 18 18 18 18 18 18 18 18 18 18 18 18 18 18 17 18 18 17 17 17 17 17 17 17
21 20 19 19 19 18 19 19 19 19 19 18 18 18 18 18 18 18 18 18 18 18 18 18 18 18 18 18 18 18 18 18 18 18 18 18 17 17 17 17 17 17 17
21 21 20 20 19 19 18 19 18 18 18 18 18 18 18 17 17 18 18 18 18 18 18 18 18 18 18 18 18 18 18 18 18 18 18 18 18 17 17 17 17 17 17
21 21 20 20 20 19 19 19 18 18 18 18 18 18 18 18 18 18 18 18 18 18 18 18 18 18 18 18 18 18 18 18 18 18 18 18 18 18 17 17 17 17 17
22 21 21 20 20 20 20 19 19 19 19 18 18 18 18 18 18 18 18 18 18 18 18 18 18 17 18 18 18 18 18 18 18 18 18 18 18 18 18 17 17 17 17
22 21 21 20 20 20 20 20 19 19 19 19 18 18 18 18 18 18 18 18 18 18 18 18 18 18 18 18 18 18 18 18 18 18 18 18 18 18 18 18 17 17 17
21 21 20 20 20 20 20 20 19 19 19 19 18 18 18 18 18 18 18 18 18 18 18 18 18 18 18 18 18 18 18 18 18 18 18 18 18 18 18 18 18 17 17
22 21 20 20 20 20 19 20 19 19 19 19 19 19 18 18 18 18 18 18 18 18 18 18 18 18 18 18 18 18 18 18 18 18 18 18 18 18 18 18 18 18 17
22 21 20 20 20 20 20 20 19 19 19 19 19 19 18 18 18 18 18 18 18 18 18 18 18 18 18 18 18 18 18 18 18 18 18 18 17 17 17 17 17 17 17
22 21 21 20 20 20 20 20 19 19 19 19 19 19 19 18 18 18 18 18 18 18 18 18 18 18 18 18 18 18 18 18 18 18 18 18 18 17 17 17 17 17 17
22 21 21 20 20 20 20 20 19 19 19 19 19 19 19 18 18 18 18 18 18 18 18 18 18 18 18 18 18 18 18 18 18 18 18 18 18 18 18 17 17 17 17
21 21 21 20 20 20 20 20 20 19 19 19 19 19 19 18 18 18 18 18 18 18 18 18 18 18 18 18 18 18 18 19 19 19 18 18 18 18 18 18 18 17 17
22 21 21 21 20 20 20 20 19 19 19 19 19 19 19 19 18 18 18 18 18 18 18 18 18 18 18 18 18 18 18 19 19 19 19 19 18 18 18 18 18 17 17
22 21 21 21 21 21 20 20 19 19 19 19 19 19 19 19 19 18 18 18 18 18 18 18 18 18 18 18 18 18 18 19 19 19 19 19 19 18 18 18 18 18 18
22 22 21 21 21 21 20 20 19 19 19 19 19 19 19 19 19 19 19 19 18 18 18 18 18 18 18 18 18 18 18 18 18 18 19 19 19 18 18 18 18 18 18
22 22 21 21 21 21 20 20 20 19 19 19 19 19 19 19 19 19 19 19 18 18 18 18 18 18 18 18 18 18 18 18 18 18 18 19 18 18 18 18 18 18 18
23 22 21 21 21 21 21 20 20 20 19 19 19 19 19 19 19 19 19 19 18 18 18 18 18 18 18 18 18 18 18 18 18 18 18 18 18 18 18 18 18 18 18
Wind_Speed
15 15 15 16 16 16 16 17 17 18 18 18 18 18 19 19 19 19 19 19 19 19 19 19 19 19 20 21 21 21 21 21 21 21 21 19 18 16 16 18 19 18 18
18 17 17 16 16 16 16 17 17 17 17 17 17 17 18 18 18 18 19 19 18 19 19 19 19 19 19 19 19 19 19 19 20 20 20 19 17 16 16 18 19 16 17
19 18 17 16 16 16 16 16 16 17 17 17 16 17 17 17 17 18 18 18 18 18 18 19 18 18 18 18 17 16 16 16 17 18 18 17 17 18 20 20 19 17 17
19 18 17 17 16 16 16 16 16 16 16 16 16 16 17 17 17 17 17 17 18 18 18 18 18 18 17 16 14 13 12 12 12 12 13 16 16 17 18 18 17 16 16
18 19 18 17 17 16 16 15 15 16 16 15 16 16 16 16 17 16 17 17 17 17 17 17 17 16 15 14 12 9 7 6 7 9 16 18 16 15 16 16 16 16 15
19 19 18 17 16 16 15 15 15 15 15 15 15 15 16 16 16 16 16 16 16 16 16 16 16 15 14 11 9 6 4 2 5 11 16 17 15 15 15 15 15 14 15
20 19 18 17 16 15 15 15 15 15 15 15 15 15 15 15 15 15 15 16 15 15 15 15 15 14 12 9 6 4 3 4 7 15 17 17 15 14 14 14 14 14 14
20 19 18 17 16 15 15 15 14 14 14 14 14 15 15 14 14 14 15 15 15 14 14 14 13 12 10 7 4 2 3 4 10 15 17 16 14 14 13 13 13 13 13
19 17 16 16 15 15 15 15 14 14 14 14 14 14 14 13 14 14 14 14 14 14 14 13 12 11 9 6 3 2 4 6 5 14 16 14 14 13 13 12 12 12 12
17 16 15 15 15 14 14 14 14 14 13 13 13 13 13 13 13 13 13 13 13 12 12 12 11 10 7 4 1 2 4 6 5 15 15 14 14 13 12 11 11 11 11
14 13 14 14 14 14 14 14 14 13 13 13 12 12 12 11 12 11 13 12 12 11 11 11 10 9 6 4 4 4 5 2 9 14 14 14 13 12 11 10 10 10 10
13 13 12 12 12 13 13 13 12 12 12 10 10 10 8 8 9 11 13 11 10 10 9 9 9 8 7 6 7 7 5 4 10 13 13 15 12 11 10 9 9 9 9
11 11 12 9 8 10 10 11 9 10 10 9 10 9 9 9 10 11 9 9 9 9 8 9 9 9 8 6 5 5 2 5 9 12 13 14 12 11 9 9 8 8 8
11 11 12 9 5 6 8 8 8 8 7 7 9 9 7 5 6 9 8 10 9 7 6 7 6 5 3 2 1 1 2 5 9 12 13 13 12 11 9 9 8 8 7
10 10 11 9 7 5 4 3 6 7 7 9 8 6 7 4 4 5 4 4 6 7 6 4 3 2 2 1 0 1 3 4 6 10 12 14 13 12 10 10 9 8 8
12 12 11 10 8 6 4 1 3 6 7 8 8 7 6 5 6 5 3 2 3 5 5 4 4 3 1 1 1 1 1 3 4 9 12 13 14 13 12 11 10 10 9
12 11 11 10 9 7 6 5 4 5 8 7 7 8 6 6 7 5 3 3 4 5 5 3 2 3 3 3 2 2 2 2 3 5 10 13 13 14 14 14 13 12 11
12 12 11 11 11 8 5 3 2 4 6 6 8 8 7 6 7 5 4 3 5 5 5 3 2 2 2 1 1 2 2 3 5 7 9 12 13 13 15 16 15 14 13
12 12 10 9 12 10 7 4 2 2 4 5 7 8 8 7 6 4 2 3 4 3 3 4 3 1 1 1 2 3 3 3 4 7 7 10 12 13 15 17 19 17 16
12 12 10 8 10 9 7 5 3 3 3 3 5 6 8 8 8 5 3 4 4 3 2 2 2 2 1 2 4 3 3 4 4 4 5 7 10 13 14 16 17 17 19
13 12 11 10 9 8 6 6 6 5 4 3 4 7 7 7 7 5 3 4 4 3 3 3 3 3 4 3 2 2 3 5 5 5 5 5 6 10 12 14 16 15 15
14 13 12 11 11 9 7 5 5 5 4 5 4 7 9 8 8 8 5 4 4 3 3 3 3 2 3 3 2 2 2 3 3 6 5 5 6 6 7 12 14 14 13
16 15 13 12 11 11 9 6 5 4 3 4 5 5 7 9 9 8 6 5 4 5 4 5 5 5 4 3 3 2 2 2 2 2 5 5 4 3 3 6 10 13 14
15 15 12 12 11 10 9 9 9 7 6 6 5 6 7 8 9 9 7 7 5 5 4 6 6 5 5 4 3 3 3 2 1 2 2 2 2 4 4 5 6 9 12
15 15 13 12 11 11 10 9 8 7 6 4 5 6 6 6 8 9 8 6 6 5 5 5 3 4 4 5 4 3 4 3 4 3 3 3 2 3 4 4 4 5 8
14 14 14 12 11 11 11 10 10 9 7 7 7 6 6 5 6 7 8 6 6 6 5 5 4 5 5 4 4 3 3 3 3 4 5 4 4 4 4 3 3 3 5
Wind_Direction
102 103 104 100 98 98 98 96 94 92 91 90 89 90 91 91 91 92 92 93 94 94 94 93 92 91 91 91 91 93 94 96 97 98 97 95 94 95 100 105 99 97 100
108 107 105 103 101 100 100 99 98 97 95 93 92 92 93 93 94 95 95 95 95 95 95 95 95 95 95 95 97 99 101 103 105 105 102 94 89 88 89 91 94 101 102
111 112 108 104 104 103 103 102 101 100 99 97 96 95 96 96 96 96 96 96 96 96 96 96 96 98 98 100 101 105 109 114 119 121 113 100 91 87 90 93 98 101 101
117 116 110 109 108 107 107 106 105 104 103 102 100 99 98 98 97 98 98 98 98 97 97 98 98 99 101 103 105 109 115 123 133 132 108 100 96 93 95 98 100 101 101
110 109 111 112 111 109 108 107 107 107 106 104 103 102 101 100 99 99 98 97 97 97 99 100 100 101 103 105 108 111 114 121 128 109 96 94 95 99 99 101 102 103 103
112 111 114 115 113 112 110 109 109 109 108 107 106 105 103 102 101 102 101 101 100 99 99 101 101 102 104 107 109 106 95 86 94 104 104 103 103 104 104 104 105 105 106
112 115 117 116 115 113 112 111 111 111 110 110 109 108 106 105 104 103 103 104 103 102 102 103 103 103 105 104 101 88 32 6 99 99 94 97 105 108 107 107 106 106 107
117 117 119 118 118 116 114 113 114 114 113 113 113 111 109 109 108 105 104 105 105 105 106 106 105 106 105 101 89 49 357 6 104 105 102 104 110 110 109 108 107 108 109
118 123 128 127 123 121 119 119 118 117 117 118 117 117 117 117 115 111 109 109 108 109 112 111 110 111 110 106 91 3 348 352 94 111 109 111 116 114 112 112 112 113 112
123 129 132 134 134 133 126 125 124 124 123 124 126 128 127 126 123 121 117 115 115 116 119 120 119 120 125 130 161 302 323 330 109 104 107 118 123 122 120 119 117 117 117
126 130 132 136 144 141 134 133 134 132 133 135 138 142 145 144 138 136 119 123 125 126 129 132 135 139 149 175 220 263 287 254 99 100 108 123 127 127 128 126 125 124 124
133 137 136 141 150 145 135 141 150 145 148 154 149 160 165 143 135 126 128 133 136 140 143 148 155 166 183 193 213 237 250 153 112 111 122 132 133 134 134 136 135 135 134
142 141 135 141 147 140 136 154 154 142 152 157 151 155 150 141 134 133 142 145 155 164 169 160 177 195 204 200 188 201 219 87 102 113 132 139 142 144 145 148 148 147 148
154 145 138 137 127 121 136 145 145 144 150 147 152 164 150 148 148 150 161 163 171 172 170 175 196 201 184 139 127 89 70 87 101 117 142 150 153 157 160 162 164 165 164
153 143 131 137 131 110 101 145 146 140 148 139 146 157 150 147 137 131 125 154 163 165 168 173 160 140 99 101 209 92 65 87 123 130 147 161 164 169 174 177 180 180 180
162 150 140 144 134 126 131 138 132 136 134 139 144 152 161 145 129 130 144 159 154 155 149 161 161 144 162 223 187 134 151 153 139 142 155 168 175 178 183 186 189 192 195
163 150 145 150 146 154 166 185 161 150 149 143 138 151 165 148 143 155 159 178 170 154 143 154 175 172 189 204 190 196 198 182 168 159 162 170 179 189 193 195 197 201 204
159 152 160 166 155 164 175 194 176 158 139 140 143 151 164 157 161 175 177 182 162 165 161 179 213 193 191 205 209 216 195 188 191 194 190 183 182 189 197 203 204 207 210
156 154 164 161 157 167 171 180 201 130 121 143 153 156 167 174 175 195 179 136 172 185 187 196 154 189 198 216 236 213 216 213 204 213 202 197 191 187 189 200 206 210 214
157 157 163 165 158 162 166 172 199 173 157 169 163 155 166 183 186 200 188 174 210 202 192 166 151 194 234 238 255 239 234 226 211 211 214 209 197 198 197 192 199 211 217
161 162 165 173 165 168 174 180 186 182 181 186 188 167 175 198 192 207 221 173 216 221 199 191 190 206 227 233 254 264 262 248 224 212 216 214 213 209 198 183 192 202 209
168 168 171 177 175 181 182 186 186 176 183 193 199 171 185 198 202 205 214 210 207 217 219 221 208 231 244 217 226 252 255 256 248 229 211 214 218 210 200 197 198 201 203
176 176 180 181 179 187 182 180 189 171 199 196 185 184 195 198 206 219 202 219 216 217 208 214 216 221 244 250 226 227 254 253 283 251 228 227 210 202 217 227 207 202 208
180 180 179 178 180 184 185 188 190 191 200 204 191 193 195 202 208 212 212 218 224 235 213 217 216 216 225 248 245 225 236 261 266 295 274 248 223 225 229 245 233 211 209
182 180 179 177 182 185 191 194 198 205 205 205 198 198 197 202 210 215 210 213 219 232 230 233 227 222 225 234 249 236 236 240 226 233 263 267 256 239 241 245 244 228 212
181 180 179 178 185 186 193 197 199 206 206 207 205 199 200 205 211 216 215 207 215 226 232 233 229 225 232 245 260 264 249 235 229 229 247 262 261 248 231 232 235 232 229
Height
1526 1526 1526 1528 1528 1530 1531 1532 1532 1533 1534 1535 1536 1538 1539 1540 1541 1542 1543 1544 1545 1546 1547 1549 1550 1551 1552 1553 1554 1555 1557 1558 1559 1560 1561 1562 1563 1564 1565 1566 1567 1567 1568
1526 1527 1529 1530 1531 1532 1533 1534 1536 1537 1538 1539 1540 1541 1542 1543 1544 1545 1546 1547 1549 1550 1550 1551 1552 1553 1555 1556 1557 1558 1559 1561 1562 1563 1564 1565 1566 1567 1568 1569 1570 1570 1571
1528 1529 1531 1532 1533 1535 1536 1537 1538 1539 1541 1542 1543 1544 1545 1546 1547 1548 1550 1551 1552 1552 1553 1554 1555 1556 1557 1559 1560 1561 1562 1563 1565 1566 1567 1568 1569 1570 1570 1571 1572 1573 1574
1530 1531 1533 1534 1536 1537 1538 1540 1541 1542 1543 1545 1546 1547 1548 1550 1551 1552 1553 1554 1555 1555 1556 1557 1558 1559 1560 1562 1563 1564 1565 1566 1568 1569 1571 1571 1571 1572 1573 1574 1574 1575 1576
1532 1533 1535 1536 1538 1539 1541 1542 1544 1545 1546 1547 1549 1550 1551 1553 1554 1555 1555 1556 1557 1558 1559 1560 1561 1562 1563 1565 1566 1567 1568 1570 1571 1572 1573 1573 1574 1575 1575 1576 1577 1578 1579
1534 1535 1537 1538 1540 1542 1543 1545 1546 1547 1549 1550 1551 1553 1554 1555 1556 1557 1558 1559 1560 1561 1562 1563 1564 1565 1566 1567 1569 1570 1571 1572 1574 1575 1575 1575 1576 1577 1577 1578 1579 1580 1581
1536 1537 1539 1541 1542 1544 1546 1547 1549 1550 1551 1553 1554 1555 1557 1558 1559 1560 1561 1562 1563 1564 1565 1565 1566 1568 1569 1570 1571 1573 1574 1575 1576 1577 1577 1578 1578 1579 1579 1580 1581 1582 1583
1538 1539 1541 1543 1544 1546 1548 1549 1551 1552 1554 1555 1556 1558 1559 1560 1561 1562 1563 1564 1565 1566 1567 1568 1569 1570 1571 1572 1574 1575 1576 1577 1579 1579 1579 1580 1580 1581 1581 1582 1583 1584 1585
1540 1541 1543 1545 1547 1548 1550 1551 1553 1554 1556 1557 1559 1560 1561 1562 1564 1565 1566 1567 1568 1569 1570 1571 1572 1573 1574 1575 1576 1577 1579 1580 1581 1581 1581 1581 1582 1583 1583 1584 1585 1586 1587
1543 1544 1546 1547 1549 1550 1552 1553 1555 1556 1558 1559 1561 1562 1564 1565 1566 1567 1568 1569 1570 1571 1572 1573 1574 1575 1576 1577 1579 1580 1581 1582 1583 1583 1582 1583 1584 1584 1585 1586 1586 1587 1588
1545 1547 1549 1550 1551 1553 1554 1556 1557 1558 1560 1561 1563 1564 1566 1567 1568 1569 1571 1571 1572 1573 1574 1575 1576 1577 1579 1580 1581 1582 1583 1583 1584 1584 1584 1584 1585 1585 1586 1587 1588 1588 1589
1546 1549 1551 1552 1554 1556 1557 1558 1559 1560 1562 1563 1565 1566 1568 1569 1570 1572 1573 1573 1574 1575 1576 1577 1578 1580 1580 1582 1583 1584 1584 1585 1585 1585 1585 1586 1586 1586 1587 1588 1589 1589 1590
1547 1550 1552 1553 1556 1557 1558 1559 1561 1563 1564 1565 1567 1568 1569 1571 1572 1573 1574 1575 1576 1577 1578 1579 1580 1581 1582 1583 1585 1585 1586 1587 1586 1586 1586 1587 1587 1587 1588 1589 1589 1590 1591
1547 1550 1552 1554 1556 1558 1559 1561 1563 1564 1565 1566 1568 1569 1571 1572 1573 1574 1575 1576 1577 1578 1579 1580 1581 1582 1584 1585 1586 1586 1587 1588 1587 1586 1587 1587 1588 1588 1588 1589 1590 1590 1591
1548 1550 1552 1554 1556 1558 1559 1562 1564 1565 1566 1567 1568 1570 1572 1573 1574 1575 1576 1577 1578 1579 1580 1581 1582 1583 1584 1585 1586 1587 1587 1588 1588 1587 1587 1588 1588 1588 1589 1589 1590 1590 1591
1547 1549 1551 1553 1555 1557 1559 1561 1564 1565 1567 1568 1569 1570 1572 1573 1574 1575 1576 1577 1579 1580 1581 1582 1582 1583 1584 1585 1586 1586 1587 1588 1588 1587 1587 1587 1588 1588 1589 1589 1589 1590 1590
1546 1548 1550 1552 1554 1557 1559 1562 1564 1566 1567 1568 1569 1570 1572 1573 1574 1576 1577 1578 1579 1580 1581 1582 1583 1583 1584 1585 1586 1586 1587 1587 1588 1588 1587 1587 1587 1588 1588 1589 1589 1589 1590
1544 1547 1549 1552 1553 1556 1558 1561 1564 1566 1567 1568 1569 1570 1572 1573 1574 1575 1577 1578 1579 1580 1581 1581 1582 1583 1584 1585 1585 1586 1586 1586 1587 1587 1587 1587 1586 1587 1587 1588 1588 1588 1589
1542 1545 1548 1551 1552 1554 1557 1560 1562 1564 1566 1568 1569 1570 1571 1573 1574 1575 1577 1577 1578 1579 1580 1581 1581 1582 1583 1584 1584 1585 1585 1585 1585 1586 1586 1586 1586 1586 1586 1586 1587 1587 1587
1541 1543 1546 1549 1551 1553 1555 1558 1560 1563 1565 1567 1568 1569 1570 1572 1573 1574 1575 1577 1578 1579 1580 1580 1581 1581 1582 1583 1583 1583 1583 1583 1583 1584 1584 1585 1585 1584 1584 1584 1584 1585 1585
1539 1541 1544 1547 1549 1551 1554 1556 1558 1561 1563 1565 1567 1568 1569 1570 1572 1573 1574 1575 1576 1577 1578 1579 1579 1580 1580 1581 1581 1581 1581 1581 1581 1581 1582 1582 1583 1583 1583 1582 1582 1583 1583
1535 1538 1541 1544 1546 1549 1552 1554 1557 1559 1561 1563 1565 1566 1567 1568 1570 1571 1572 1573 1574 1575 1576 1577 1577 1578 1579 1579 1580 1580 1579 1580 1579 1579 1579 1579 1580 1580 1581 1580 1580 1580 1580
1532 1535 1538 1541 1544 1546 1549 1552 1555 1557 1559 1561 1562 1563 1564 1566 1567 1568 1570 1571 1572 1573 1574 1575 1575 1576 1576 1577 1578 1578 1578 1577 1576 1576 1576 1577 1577 1577 1577 1577 1578 1578 1578
1529 1532 1535 1538 1541 1544 1547 1549 1551 1553 1555 1557 1559 1560 1561 1563 1564 1565 1567 1568 1569 1570 1571 1572 1573 1573 1574 1574 1575 1576 1576 1575 1575 1574 1574 1574 1574 1574 1574 1574 1575 1574 1575
1527 1530 1533 1535 1538 1541 1543 1546 1548 1551 1553 1555 1556 1558 1559 1560 1561 1562 1564 1565 1566 1567 1568 1569 1570 1571 1571 1572 1572 1573 1573 1573 1573 1573 1571 1571 1571 1571 1571 1571 1571 1571 1572
1525 1528 1530 1532 1534 1537 1540 1543 1545 1547 1550 1552 1553 1555 1556 1557 1558 1559 1560 1561 1562 1564 1565 1566 1566 1567 1568 1569 1569 1569 1570 1570 1570 1570 1569 1568 1568 1568 1568 1568 1568 1567 1567